"Pseudo-MPEC" for CEQYJM2

Created 2026 Sep 2 20:35:04 UT using Find_Orb

Click here for an explanation of pseudo-MPECs

 
 Astrometry: 
     CEQYJM2 0C2022 10 30.44388204 10 31.802-17 05 24.40   ~92Ao 21.43wUNEOCPF52
     CEQYJM2 0C2022 10 30.45462704 10 31.306-17 05 29.33   ~92Ao 21.42wUNEOCPF52
     CEQYJM2 0C2022 10 30.46536604 10 30.815-17 05 33.78   ~92Ao 21.32wUNEOCPF52
     CEQYJM2 0C2022 10 30.47613904 10 30.302-17 05 38.83   ~92Ao 21.50wUNEOCPF52
     CEQYJM2 0C2026 07 25.57249823 22 52.102-05 27 12.95   ~92Ao 21.11wXNEOCPF51
     CEQYJM2 0C2026 07 25.58314023 22 52.647-05 27 22.67   ~92Ao 21.06wXNEOCPF51
     CEQYJM2 0C2026 07 25.60457423 22 53.762-05 27 42.55   ~92Ao 21.24wXNEOCPF51
     CEQYJM2 0C2026 08 09.48032523 33 57.294-10 12 08.61   ~92Ao 21.81wXNEOCPF51
     CEQYJM2 0C2026 08 09.49168323 33 57.611-10 12 23.95   ~92Ao 21.35wXNEOCPF51
     CEQYJM2 0C2026 08 09.51436323 33 58.264-10 12 54.98   ~92Ao 21.05wXNEOCPF51
     CEQYJM2*1C2026 09 02.28637423 39 17.622-20 28 05.88   ~927Z 20.58GVNEOCPG96
     CEQYJM2 1C2026 09 02.29403123 39 17.615-20 28 18.08   ~927Z 21.16GVNEOCPG96
     CEQYJM2 1C2026 09 02.29935623 39 17.561-20 28 26.51   ~927Z 20.35GVNEOCPG96
     CEQYJM2 1C2026 09 02.30468523 39 17.536-20 28 35.00   ~927Z 20.25GVNEOCPG96
     CEQYJM2 1C2026 09 02.32986423 39 17.320-20 29 14.93   ~92Ao 19.91GVNEOCPG96
     CEQYJM2 1C2026 09 02.33311023 39 17.276-20 29 20.54   ~92Ao 20.34GVNEOCPG96
     CEQYJM2 1C2026 09 02.33649423 39 17.248-20 29 26.27   ~92Ao 19.79GVNEOCPG96
     CEQYJM2 1C2026 09 02.33949623 39 17.255-20 29 31.70   ~92Ao 19.83GVNEOCPG96
     CEQYJM2 1C2026 09 02.35899023 39 17.039-20 30 01.40   ~9295 20.10GVNEOCPG96
     CEQYJM2 1C2026 09 02.36176823 39 17.024-20 30 06.48   ~9295 20.29GVNEOCPG96
     CEQYJM2 1C2026 09 02.36458023 39 17.010-20 30 10.84   ~9295 20.49GVNEOCPG96
     CEQYJM2 1C2026 09 02.36754323 39 16.992-20 30 16.02   ~9295 20.29GVNEOCPG96

Station data:
(F51) Pan-STARRS 1, Haleakala  (N20.707234 W156.255910)  US/Hawaii.
   Observers J. Herman, T. Lowe, P. Minguez, A. Schultz, I. Smith, J. Bulger,
   K. Chambers. Measurers K. Chambers, T. de Boer, J. Fairlamb, H. Gao, M.
   Huber, C.-C. Lin, E. Magnier, Y. Ramanjooloo, R. Wainscoat, R. Weryk, S.
   Chastel. 1.8-m Ritchey-Chrétien + CCD.
(F52) Pan-STARRS 2, Haleakala  (N20.707382 W156.255910)  US/Hawaii.
   Observers J. Herman, T. Lowe, P. Minguez, A. Schultz, I. Smith, J. Bulger,
   K. Chambers. Measurers K. Chambers, T. de Boer, J. Fairlamb, H. Gao, M.
   Huber, C.-C. Lin, E. Magnier, Y. Ramanjooloo, R. Wainscoat, R. Weryk, S.
   Chastel. 1.8-m Ritchey-Chrétien + CCD.
(G96) Mt. Lemmon Survey  (N32.442729 W110.788720)
   US/Arizona.  Observer E. J. Christensen. Measurers T. Beuden, V. F.
   Carvajal, D. Fay, J. B. Fazekas, D. C. Fuls, A. R. Gibbs, A. D. Grauer, H.
   Gröller, J. K. Hogan, R. A. Kowalski, S. M. Larson, G. J. Leonard, D.
   Rankin, R. L. Seaman, F. C. Shelly, K. W. Wierzchoś, E. J. Christensen, A.
   Serrano. 1.5-m reflector + 10K CCD.

Orbital elements:  CEQYJM2
   Perihelion 2026 Sep 15.924967 +/- 0.0012 TT = 22:11:57.1 (JD 2461299.424967)
Epoch 2026 Sep  2.0 TT = JDT 2461285.5   Earth MOID: 0.7288      AutoNEOCP
M 356.736492716 +/- 0.00028         (J2000 ecliptic)
n   0.234363727 +/- 1.06e-7         Peri.  208.092783 +/- 0.0006
a   2.605408253 +/- 7.84e-7         Node   142.491510 +/- 0.000040
e   0.34058053 +/- 8.93e-7          Incl.   19.794937 +/- 0.00006
P   4.20546                H 19.21  G  0.15   U  2.1
q 1.718056927 +/- 2.77e-6    Q 3.492759580 +/- 1.55e-6
From 22 observations 2022 Oct. 30-2026 Sept. 2; mean residual 0".25
Residuals in arcseconds: 
221030 F52  .00   .13+    260809 F51  .09-  .06+    260902 G96  .01-  .16-    
221030 F52  .01+  .09-    260809 F51  .04+  .07-    260902 G96  .44+  .81-    
221030 F52  .10+  .15+    260902 G96  .47-  .13+    260902 G96  .33-  .54+    
221030 F52  .10-  .20-    260902 G96  .29+  .19+    260902 G96  .22-  .12-    
260725 F51  .05+  .03-    260902 G96  .13+  .28+    260902 G96  .09-  .01-    
260725 F51  .05-  .08+    260902 G96  .38+  .31+    260902 G96  .00   .48-    
260725 F51  .01+  .01+    260902 G96  .23+  .60+    
260809 F51  .02+  .09-    260902 G96  .01-  .17+    

Ephemerides (geocentric):
Date (UTC) HH   RA             Dec           delta  r     elong  mag " sig PA
---- --------  ------------   ------------  ------ ------ -----  --- --------
2026 09 02 21  23 39 15.036   -20 43 32.86  .73345 1.7210 161.8 20.4 .128 130
2026 09 02 22  23 39 14.855   -20 44 38.97  .73344 1.7209 161.8 20.4 .128 130
2026 09 02 23  23 39 14.671   -20 45 45.06  .73342 1.7209 161.8 20.4 .128 130
2026 09 03 00  23 39 14.486   -20 46 51.12  .73341 1.7209 161.8 20.4 .128 130
2026 09 03 01  23 39 14.299   -20 47 57.17  .73339 1.7209 161.8 20.4 .129 130
2026 09 03 02  23 39 14.109   -20 49 03.19  .73338 1.7209 161.8 20.4 .129 130
2026 09 03 03  23 39 13.918   -20 50 09.19  .73337 1.7209 161.8 20.4 .129 130
2026 09 03 04  23 39 13.725   -20 51 15.17  .73336 1.7208 161.8 20.4 .129 130
2026 09 03 05  23 39 13.530   -20 52 21.13  .73334 1.7208 161.8 20.4 .129 130
2026 09 03 06  23 39 13.334   -20 53 27.07  .73333 1.7208 161.8 20.4 .129 130
2026 09 03 07  23 39 13.135   -20 54 32.98  .73332 1.7208 161.8 20.4 .130 130
2026 09 03 08  23 39 12.934   -20 55 38.87  .73331 1.7208 161.8 20.4 .130 130
2026 09 03 09  23 39 12.732   -20 56 44.74  .73330 1.7207 161.8 20.4 .130 130
2026 09 03 10  23 39 12.528   -20 57 50.58  .73329 1.7207 161.8 20.4 .130 130
2026 09 03 11  23 39 12.321   -20 58 56.41  .73328 1.7207 161.8 20.4 .130 130
2026 09 03 12  23 39 12.113   -21 00 02.21  .73327 1.7207 161.8 20.4 .130 130
2026 09 03 13  23 39 11.903   -21 01 07.98  .73326 1.7207 161.8 20.4 .131 130
2026 09 03 14  23 39 11.691   -21 02 13.73  .73325 1.7207 161.8 20.4 .131 130
2026 09 03 15  23 39 11.478   -21 03 19.46  .73324 1.7206 161.8 20.4 .131 130
2026 09 03 16  23 39 11.262   -21 04 25.17  .73324 1.7206 161.8 20.4 .131 130
2026 09 03 17  23 39 11.045   -21 05 30.85  .73323 1.7206 161.8 20.4 .131 130
2026 09 03 18  23 39 10.826   -21 06 36.51  .73322 1.7206 161.8 20.4 .131 130
2026 09 03 19  23 39 10.605   -21 07 42.14  .73321 1.7206 161.8 20.4 .132 130
2026 09 03 20  23 39 10.382   -21 08 47.75  .73321 1.7206 161.8 20.4 .132 130
2026 09 03 21  23 39 10.157   -21 09 53.34  .73320 1.7205 161.8 20.4 .132 130
2026 09 03 22  23 39 09.930   -21 10 58.90  .73320 1.7205 161.8 20.4 .132 130
2026 09 03 23  23 39 09.702   -21 12 04.43  .73319 1.7205 161.8 20.4 .132 130
2026 09 04 00  23 39 09.472   -21 13 09.94  .73319 1.7205 161.8 20.4 .132 130
2026 09 04 01  23 39 09.240   -21 14 15.43  .73318 1.7205 161.8 20.4 .133 130
2026 09 04 02  23 39 09.006   -21 15 20.89  .73318 1.7204 161.8 20.4 .133 130
2026 09 04 03  23 39 08.770   -21 16 26.32  .73318 1.7204 161.8 20.4 .133 130
2026 09 04 04  23 39 08.533   -21 17 31.74  .73317 1.7204 161.8 20.4 .133 130
2026 09 04 05  23 39 08.294   -21 18 37.12  .73317 1.7204 161.8 20.4 .133 130
2026 09 04 06  23 39 08.053   -21 19 42.48  .73317 1.7204 161.8 20.4 .133 130
2026 09 04 07  23 39 07.810   -21 20 47.81  .73316 1.7204 161.8 20.4 .134 130
2026 09 04 08  23 39 07.565   -21 21 53.12  .73316 1.7203 161.8 20.4 .134 130
2026 09 04 09  23 39 07.319   -21 22 58.40  .73316 1.7203 161.8 20.4 .134 130
2026 09 04 10  23 39 07.071   -21 24 03.66  .73316 1.7203 161.8 20.4 .134 130
2026 09 04 11  23 39 06.821   -21 25 08.89  .73316 1.7203 161.8 20.4 .134 130
2026 09 04 12  23 39 06.569   -21 26 14.09  .73316 1.7203 161.8 20.4 .134 130
2026 09 04 13  23 39 06.316   -21 27 19.26  .73316 1.7203 161.8 20.4 .135 130
2026 09 04 14  23 39 06.061   -21 28 24.41  .73316 1.7203 161.8 20.4 .135 130
2026 09 04 15  23 39 05.804   -21 29 29.53  .73316 1.7202 161.8 20.4 .135 130
2026 09 04 16  23 39 05.545   -21 30 34.63  .73316 1.7202 161.8 20.4 .135 130
2026 09 04 17  23 39 05.285   -21 31 39.70  .73316 1.7202 161.8 20.4 .135 130
2026 09 04 18  23 39 05.023   -21 32 44.74  .73317 1.7202 161.8 20.4 .135 130
2026 09 04 19  23 39 04.759   -21 33 49.75  .73317 1.7202 161.8 20.4 .136 130
2026 09 04 20  23 39 04.493   -21 34 54.74  .73317 1.7202 161.8 20.4 .136 130